"Pseudo-MPEC" for CAQZEN2

Created 2024 Sep 6 1:22:07 UT using Find_Orb

Click here for an explanation of pseudo-MPECs

 
 Astrometry: 
     CAQZEN2*1C2024 09 04.24239322 27 45.652-17 22 57.65   ~947M 20.39GVNEOCPG96
     CAQZEN2 1C2024 09 04.24799122 27 41.972-17 23 27.92   ~947M 20.75GVNEOCPG96
     CAQZEN2 1C2024 09 04.25357922 27 38.304-17 23 57.48   ~947M 20.39GVNEOCPG96
     CAQZEN2 1C2024 09 04.25917022 27 34.632-17 24 27.22   ~947M 21.01GVNEOCPG96
     CAQZEN2  C2024 09 04.32735722 26 47.221-17 30 39.83   ~948b 20.3 GVNEOCPH01
     CAQZEN2  C2024 09 04.33114122 26 44.626-17 30 59.93   ~948b 20.6 GVNEOCPH01
     CAQZEN2  C2024 09 04.34130622 26 37.621-17 31 54.58   ~948b 20.3 GVNEOCPH01
     CAQZEN2  C2024 09 04.34842222 26 32.720-17 32 32.60   ~948b 20.5 GVNEOCPH01
     CAQZEN2 KC2024 09 04.39887122 25 58.660-17 37 01.02   ~94A7 20.47GVNEOCPI52
     CAQZEN2 KC2024 09 04.40151722 25 56.780-17 37 16.07   ~94A7 20.26GVNEOCPI52
     CAQZEN2 KC2024 09 04.40416622 25 54.883-17 37 29.42   ~94A7 20.67GVNEOCPI52
     CAQZEN2 KC2024 09 04.40680922 25 53.051-17 37 43.32   ~94A7 20.76GVNEOCPI52
     CAQZEN2 KC2024 09 05.22795922 15 20.01 -19 19 54.1    ~95C7 19.9 GXNEOCP858
     CAQZEN2 KC2024 09 05.23102022 15 16.34 -19 20 23.4    ~95C7 20.1 GXNEOCP858
     CAQZEN2 KC2024 09 05.23710022 15 11.146-19 21 09.58   ~956M 19.84GVNEOCPI52
     CAQZEN2 KC2024 09 05.23782522 15 10.267-19 21 16.06   ~956M 20.12GVNEOCPI52
     CAQZEN2 KC2024 09 05.23855422 15 09.342-19 21 24.19   ~956M 20.68GVNEOCPI52
     CAQZEN2 KC2024 09 05.23928322 15 08.500-19 21 31.43   ~956M 19.72GVNEOCPI52

Station data:
(858) Tebbutt Observatory, Edgewood  (N35.093869 W106.220000)  US/New Mexico.
    Observer F. B. Zoltowski. 0.16-m refractor + CCD0.51-m Schmidt-Cassegrain
   + CCD.
(G96) Mt. Lemmon Survey  (N32.442729 W110.788720)  US/Arizona.  Observer E.
   J. Christensen. 1.5-m reflector + 10K CCD.
(H01) Magdalena Ridge Observatory, Socorro  (N33.984833 W107.189333)  US/New
   Mexico.  Observers W. H. Ryan, E. V. Ryan. Measurer W. H. Ryan. 2.4-m
   f/8.9 reflector + CCD.
(I52) Steward Observatory, Mt. Lemmon Station  (N32.442570 W110.788920)
   US/Arizona.  Observers T. A. Pruyne, B. M. Africano, E. J. Christensen, G.
   A. Farneth, D. C. Fuls, A. R. Gibbs, A. D. Grauer, H. Gröller, J. A.
   Johnson, R. A. Kowalski, S. M. Larson, G. J. Leonard, D. Rankin, R. L.
   Seaman, F. C. Shelly, K. W. Wierzchoś. 1.0-m prime focus + CCD.

Orbital elements:  CAQZEN2
   Perihelion 2024 Oct 31.60210 +/- 0.0313 TT = 14:27:01 (JD 2460615.10210)
Epoch 2024 Sep  5.0 TT = JDT 2460558.5   Earth MOID: 0.0011   Ve: 0.0185
M 326.52106357 +/- 0.07             Ma: 0.0112                   AutoNEOCP
n   0.59147870 +/- 0.000976         Peri.   82.49637 +/- 0.017
a   1.40554032 +/- 0.00155          Node   346.48540 +/- 0.008
e   0.4958946 +/- 0.000806          Incl.    2.29742 +/- 0.0033
P   1.666/608.633d         H 27.80  G  0.15   U  8.1
q 0.70854036 +/- 0.000387    Q 2.10254028 +/- 0.00344     (J2000 ecliptic)
From 18 observations 2024 Sept. 4-5 (23.9 hr); mean residual 0".39
Residuals in arcseconds: 
240904 G96  .26-  .48-    240904 H01  .19-  .09+    240905 858  .09+  .10-    
240904 G96  .25-  .49-    240904 H01  .16-  .20+    240905 858  .00   .45+    
240904 G96  .10+  .17+    240904 I52  .92+  .12-    240905 I52  .18+  .14-    
240904 G96  .66+  .65+    240904 I52  .32+  .91-    240905 I52  .12+  .51+    
240904 H01  .09-  .07+    240904 I52  .49-  .02+    240905 I52  .51-  .46-    
240904 H01  .03-  .26+    240904 I52  .45-  .37+    240905 I52  .05+  .53-    

Ephemerides (geocentric):
Date (UTC) HH   RA             Dec           delta  r     elong  mag " sig PA
---- --------  ------------   ------------  ------ ------ -----  --- --------
2024 09 06 01  21 54 36.164   -22 12 25.30  .01466 1.0216 157.8 19.7 18.4  65
2024 09 06 02  21 53 02.005   -22 25 17.63  .01435 1.0213 157.3 19.7 20.7  64
2024 09 06 03  21 51 23.334   -22 38 40.74  .01403 1.0209 156.9 19.7 23.2  64
2024 09 06 04  21 49 39.829   -22 52 36.34  .01372 1.0206 156.4 19.6 26.0  64
2024 09 06 05  21 47 51.137   -23 07 06.23  .01341 1.0202 155.9 19.6 29.1  64
2024 09 06 06  21 45 56.874   -23 22 12.32  .01310 1.0199 155.3 19.6 32.5  64
2024 09 06 07  21 43 56.616   -23 37 56.65  .01279 1.0195 154.8 19.5 36.3  64
2024 09 06 08  21 41 49.897   -23 54 21.36  .01248 1.0192 154.2 19.5 40.5  64
2024 09 06 09  21 39 36.206   -24 11 28.73  .01217 1.0189 153.6 19.5 45.1  64
2024 09 06 10  21 37 14.977   -24 29 21.14  .01187 1.0185 152.9 19.4 50.1  64
2024 09 06 11  21 34 45.587   -24 48 01.12  .01156 1.0182 152.3 19.4 55.8  64
2024 09 06 12  21 32 07.344   -25 07 31.28  .01126 1.0178 151.5 19.3 62.0  64
2024 09 06 13  21 29 19.482   -25 27 54.36  .01096 1.0175 150.8 19.3 68.9  64
2024 09 06 14  21 26 21.152   -25 49 13.18  .01066 1.0171 150.0 19.3 76.6  64
2024 09 06 15  21 23 11.405   -26 11 30.61  .01036 1.0168 149.2 19.2 85.0  64
2024 09 06 16  21 19 49.189   -26 34 49.57  .01007 1.0164 148.3 19.2 94.5  65
2024 09 06 17  21 16 13.329   -26 59 12.95  .00978 1.0161 147.4 19.2  105  65
2024 09 06 18  21 12 22.510   -27 24 43.51  .00949 1.0158 146.4 19.1  117  65
2024 09 06 19  21 08 15.266   -27 51 23.86  .00920 1.0154 145.4 19.1  130  66
2024 09 06 20  21 03 49.954   -28 19 16.28  .00891 1.0151 144.2 19.0  144  66
2024 09 06 21  20 59 04.738   -28 48 22.52  .00863 1.0147 143.1 19.0  160  67
2024 09 06 22  20 53 57.564   -29 18 43.67  .00836 1.0144 141.8 19.0  178  67
2024 09 06 23  20 48 26.135   -29 50 19.76  .00808 1.0140 140.5 18.9  198  68
2024 09 07 00  20 42 27.892   -30 23 09.44  .00781 1.0137 139.0 18.9  221  68
2024 09 07 01  20 35 59.991   -30 57 09.47  .00755 1.0133 137.5 18.9  246  69
2024 09 07 02  20 28 59.285   -31 32 14.11  .00729 1.0130 135.9 18.8  274  70
2024 09 07 03  20 21 22.320   -32 08 14.36  .00704 1.0127 134.1 18.8  305  71
2024 09 07 04  20 13 05.343   -32 44 56.97  .00679 1.0123 132.2 18.8  339  72
2024 09 07 05  20 04 04.334   -33 22 03.37  980857 1.0120 130.2 18.8  377  73
2024 09 07 06  19 54 15.075   -33 59 08.33  946564 1.0116 128.1 18.7  420  75
2024 09 07 07  19 43 33.279   -34 35 38.55  913678 1.0113 125.7 18.7  466  76
2024 09 07 08  19 31 54.774   -35 10 51.17  882354 1.0109 123.2 18.7  517  78
2024 09 07 09  19 19 15.795   -35 43 52.50  852765 1.0106 120.6 18.7  572  79
2024 09 07 10  19 05 33.374   -36 13 37.20  825098 1.0103 117.7 18.7  632  81
2024 09 07 11  18 50 45.834   -36 38 48.25  799553 1.0099 114.7 18.8  695  84
2024 09 07 12  18 34 53.387   -36 57 58.51  776339 1.0096 111.5 18.8  761  86
2024 09 07 13  18 17 58.743   -37 09 34.07  755672 1.0092 108.1 18.8  829  88
2024 09 07 14  18 00 07.654   -37 12 00.04  737765 1.0089 104.5 18.9  897  91
2024 09 07 15  17 41 29.218   -37 03 48.61  722823 1.0085 100.7 19.0  963  94
2024 09 07 16  17 22 15.806   -36 43 48.75  711034 1.0082  96.9 19.1 1026  97
2024 09 07 17  17 02 42.493   -36 11 15.99  702557 1.0078  92.9 19.2 1083 100
2024 09 07 18  16 43 06.000   -35 26 00.39  697513 1.0075  88.8 19.4 1131 103
2024 09 07 19  16 23 43.321   -34 28 30.48  695975 1.0072  84.7 19.5 1170 105
2024 09 07 20  16 04 50.285   -33 19 52.11  697967 1.0068  80.6 19.7 1197 108
2024 09 07 21  15 46 40.357   -32 01 42.13  703460 1.0065  76.5 20.0 1212 110
2024 09 07 22  15 29 23.881   -30 35 58.33  712371 1.0061  72.5 20.2 1215 113
2024 09 07 23  15 13 07.830   -29 04 47.84  724575 1.0058  68.6 20.5 1207 115
2024 09 08 00  14 57 55.988   -27 30 16.20  739908 1.0054  64.9 20.8 1190 116